Back to catalog

COSMOS 2303

AliveMilitaryPO
NORAD 23445·PAYLOAD·🇷🇺 Russia

Launched Dec 26, 1994 from Plesetsk Cosmodrome

Loading…

Next Passes (next 24 hours)

TLE

FreshSource: Space-Track

Epoch: Sep 14, 2026, 13:51 UTC

1 23445U 94086E   26257.57745387  .00000015  00000-0  26020-4 0  9993
2 23445  82.5714 289.1385 0011445  12.1674 155.6652 12.60563914459240

Track COSMOS 2303 in real time with AllMySat

Download on the App Store